User: anonymous   Login
Location: Peach Mountain Observatory
(42.3967°N, 83.9367°W)
Time: 23:30:31
(UTC-05:00)
Language:

A-11 Canister half - Orbit

View from above orbital plane
View from above orbital plane
View from above satellite
View from above satellite

Ground track
Ground track

The orbit data is extracted from the following two-line orbital elements,

1    53U 60009E   20022.38765497 -.00000003 +00000-0 +80915-3 0  9998
2    53 047.2784 352.5140 0099394 005.6284 354.5600 12.17236775650657
Epoch (UTC): 22 January 2020 09:18:13
Eccentricity: 0.0099394
inclination: 47.2784°
perigee height: 1525 km
apogee height: 1684 km
right ascension of ascending node: 352.5140°
argument of perigee: 5.6284°
revolutions per day: 12.17236775
mean anomaly at epoch: 354.5600°
orbit number at epoch: 65065

The dashed part of the orbit path shows where the satellite is in the earth's shadow,  

DLR